Location: Unspecified
(0.0000°N, 0.0000°E)
Time: 07:38:34
(UTC+00:00)

ARIANE 6 FM1 Upper Stage - Pass Details

Date: 09 November 2025
Orbit: 523 x 612 km, 62.0° (Epoch: 12 November)

Event Time Altitude Azimuth Distance (km) Brightness Sun altitude
Exits shadow 04:02:40 10° 200° (SSW) 1,890 5.3 -24.1°
Drops below altitude 10° 04:02:42 10° 200° (SSW) 1,900 5.3 -24.1°
Sets 04:05:34 0° 181° (S) 2,821 6.5 -23.4°
